Location: Lafig�re
(44.4503°N, 4.0357°E)
Time: 02:04:56
(UTC+00:00)

Transit 4A - Pass Details

Date: 26 January 2021
Orbit: 866 x 979 km, 66.8° (Epoch: 24 February)

Event Time Altitude Azimuth Distance (km) Brightness Sun altitude
Rises 16:13:38 0° 146° (SSE) 3,660 11.0 4.1°
Reaches altitude 10° 16:18:49 10° 111° (ESE) 2,726 10.0 3.3°
Maximum altitude 16:20:04 11° 99° (E) 2,682 9.9 3.1°
Drops below altitude 10° 16:21:21 10° 87° (E) 2,729 9.8 2.9°
Sets 16:26:30 0° 52° (NE) 3,674 10.3 2.1°
